Location: Poughquag
(41.6090°N, 73.6820°W)
Time: 14:51:18
(UTC-04:00)

Explorer 11/Cluster Stage 4 - Pass Details

Date: 06 June 2020
Orbit: 467 x 1259 km, 28.8° (Epoch: 05 July)

Event Time Altitude Azimuth Distance (km) Brightness Sun altitude
Rises 07:38:55 0° 252° (WSW) 3,312 9.2 23.1°
Reaches altitude 10° 07:41:48 10° 237° (WSW) 2,523 8.7 23.6°
Maximum altitude 07:46:23 22° 188° (S) 2,008 8.6 24.5°
Drops below altitude 10° 07:51:36 10° 142° (SE) 2,937 10.0 25.4°
Sets 07:55:17 0° 128° (SE) 4,014 10.8 26.1°
